EW9423 Weather Reports


Display with metric or nautical units.
time (UTC)temp
F
wind
direction
speed
MPH
gust
MPH
rain 1hr
in
rain 24hr
in
rain mn
in
humidity
%
barometer
mb
20260506102016 55 303 2.0 5.0 0.00 0.00 0.00 47 1013.2
20260506101016 57 321 2.0 6.0 0.00 0.00 0.00 45 1013.3
20260506100016 59 39 1.0 5.0 0.00 0.00 0.00 44 1013.3
20260506095036 58 312 1.0 4.0 0.00 0.00 0.00 44 1013.3
20260506094016 57 144 1.0 6.0 0.00 0.00 0.00 44 1013.3
20260506093016 57 338 1.0 5.0 0.00 0.00 0.00 45 1013.3
20260506092036 56 319 2.0 5.0 0.00 0.00 0.00 44 1013.3
20260506091016 55 91 1.0 2.0 0.00 0.00 0.00 44 1013.4
20260506090016 55 346 1.0 4.0 0.00 0.00 0.00 45 1013.4
20260506085016 57 81 1.0 4.0 0.00 0.00 0.00 47 1013.4
20260506084016 56 32 1.0 5.0 0.00 0.00 0.00 47 1013.4
20260506083016 56 19 2.0 3.0 0.00 0.00 0.00 49 1013.4
20260506082016 55 23 1.0 5.0 0.00 0.00 0.00 53 1013.5
20260506081036 54 350 1.0 4.0 0.00 0.00 0.00 57 1013.6
20260506073116 54 339 1.0 4.0 0.00 0.00 0.00 60 1013.3
20260506072016 54 322 1.0 3.0 0.00 0.00 0.00 61 1013.3
20260506071016 53 14 0.0 3.0 0.00 0.00 0.00 65 1013.3
20260506062016 49 0 0.0 0.0 0.00 0.00 0.00 75 1013.1
20260506061016 47 0 0.0 0.0 0.00 0.00 0.00 78 1013.1
20260506051016 38 0 0.0 0.0 0.00 0.00 0.00 91 1013.3
20260506045016 36 0 0.0 0.0 0.00 0.00 0.00 92 1013.3
20260506044016 35 0 0.0 0.0 0.00 0.00 0.00 92 1013.4
20260506043016 35 0 0.0 0.0 0.00 0.00 0.00 91 1013.4
20260506042016 34 0 0.0 1.0 0.00 0.00 0.00 91 1013.3
20260506041016 34 0 0.0 1.0 0.00 0.00 0.00 91 1013.4
20260506040016 33 113 1.0 2.0 0.00 0.00 0.00 89 1013.2
20260506035016 33 0 0.0 0.0 0.00 0.00 0.00 89 1013.2
20260506034056 33 191 0.0 1.0 0.00 0.00 0.00 88 1013.2
20260506033016 33 0 0.0 0.0 0.00 0.00 0.00 88 1013.2
20260506032035 33 0 0.0 0.0 0.00 0.00 0.00 88 1013.1
20260506031035 33 0 0.0 1.0 0.00 0.00 0.00 88 1013.0
20260506030018 34 312 0.0 1.0 0.00 0.00 0.00 88 1013.1
20260506025018 34 0 0.0 0.0 0.00 0.00 0.00 88 1013.0
20260506024018 34 0 0.0 0.0 0.00 0.00 0.00 88 1013.1
20260506023018 34 0 0.0 0.0 0.00 0.00 0.00 88 1013.2
20260506022039 34 0 0.0 0.0 0.00 0.00 0.00 88 1013.3
20260506021018 34 0 0.0 0.0 0.00 0.00 0.00 87 1013.4
20260506020018 34 0 0.0 0.0 0.00 0.00 0.00 86 1013.4
20260506015036 35 0 0.0 0.0 0.00 0.00 0.00 87 1013.3
20260506014018 35 312 0.0 2.0 0.00 0.00 0.00 87 1013.2
20260506013016 35 0 0.0 0.0 0.00 0.00 0.00 87 1013.2
20260506012018 36 0 0.0 0.0 0.00 0.00 0.00 87 1013.2
20260506011038 36 0 0.0 0.0 0.00 0.00 0.00 86 1013.2
20260506010018 36 312 0.0 1.0 0.00 0.00 0.00 86 1013.1
20260506005039 36 0 0.0 0.0 0.00 0.00 0.00 86 1013.2
20260506004018 37 0 0.0 2.0 0.00 0.00 0.00 86 1013.2
20260506003018 37 0 0.0 0.0 0.00 0.00 0.00 86 1013.4
20260506002018 37 0 0.0 0.0 0.00 0.00 0.00 85 1013.3
20260506001018 37 316 0.0 1.0 0.00 0.00 0.00 84 1013.4
20260506000018 37 0 0.0 0.0 0.00 0.00 0.00 84 1013.4
20260505235018 38 0 0.0 0.0 0.00 0.00 0.00 83 1013.3
20260505234038 38 0 0.0 0.0 0.00 0.00 0.00 83 1013.3
20260505233018 38 0 0.0 0.0 0.00 0.00 0.00 82 1013.3
20260505232058 39 0 0.0 0.0 0.00 0.00 0.00 81 1013.4
20260505231018 39 0 0.0 0.0 0.00 0.00 0.00 81 1013.4
20260505230018 40 0 0.0 0.0 0.00 0.00 0.00 80 1013.5
20260505225017 41 0 0.0 0.0 0.00 0.00 0.00 79 1013.5
20260505224017 41 0 0.0 0.0 0.00 0.00 0.00 79 1013.6
20260505223038 42 0 0.0 0.0 0.00 0.00 0.00 78 1013.6
20260505222038 42 0 0.0 0.0 0.00 0.00 0.00 78 1013.7
20260505221017 43 0 0.0 0.0 0.00 0.00 0.00 77 1013.7
20260505220018 43 0 0.0 0.0 0.00 0.00 0.00 76 1013.7
20260505215038 43 0 0.0 0.0 0.00 0.00 0.00 76 1013.7
20260505214017 44 0 0.0 1.0 0.00 0.00 0.00 75 1013.7
20260505213018 44 0 0.0 0.0 0.00 0.00 0.00 75 1013.8
20260505212017 44 316 0.0 2.0 0.00 0.00 0.00 74 1013.8
20260505211017 44 0 0.0 0.0 0.00 0.00 0.00 73 1013.8
20260505210017 45 0 0.0 0.0 0.00 0.00 0.00 72 1013.7
20260505205017 45 0 0.0 1.0 0.00 0.00 0.00 72 1013.7
20260505204018 45 317 0.0 4.0 0.00 0.00 0.00 71 1013.7
20260505203017 45 319 1.0 3.0 0.00 0.00 0.00 71 1013.7
20260505202037 45 315 1.0 3.0 0.00 0.00 0.00 70 1013.7
20260505201017 45 315 2.0 5.0 0.00 0.00 0.00 69 1013.8
20260505200018 46 312 1.0 5.0 0.00 0.00 0.00 69 1013.8
20260505195017 46 310 1.0 4.0 0.00 0.00 0.00 68 1013.8
20260505194017 46 309 1.0 4.0 0.00 0.00 0.00 67 1013.7
20260505193038 46 316 2.0 4.0 0.00 0.00 0.00 66 1013.7
20260505192017 46 306 1.0 4.0 0.00 0.00 0.00 65 1013.7
20260505191017 46 319 1.0 4.0 0.00 0.00 0.00 64 1013.5
20260505190017 47 322 2.0 4.0 0.00 0.00 0.00 63 1013.5
20260505185017 47 319 2.0 5.0 0.00 0.00 0.00 62 1013.6
20260505184017 47 311 1.0 4.0 0.00 0.00 0.00 60 1013.5
20260505183017 48 325 3.0 9.0 0.00 0.00 0.00 59 1013.5
20260505182017 49 315 3.0 6.0 0.00 0.00 0.00 59 1013.3
20260505181017 49 317 2.0 5.0 0.00 0.00 0.00 56 1013.4
20260505180017 49 326 1.0 5.0 0.00 0.00 0.00 57 1013.3
20260505175017 50 320 3.0 6.0 0.00 0.00 0.00 57 1013.1
20260505174015 50 323 1.0 4.0 0.00 0.00 0.00 49 1013.1
20260505173036 50 259 1.0 4.0 0.00 0.00 0.00 51 1013.2
20260505172017 50 277 1.0 6.0 0.00 0.00 0.00 56 1013.3
20260505171037 50 314 3.0 6.0 0.00 0.00 0.00 57 1013.3
20260505170017 50 308 2.0 5.0 0.00 0.00 0.00 53 1013.3
20260505165017 50 303 2.0 8.0 0.00 0.00 0.00 51 1013.2
20260505164017 51 318 2.0 6.0 0.00 0.00 0.00 53 1013.3
20260505163017 51 322 2.0 5.0 0.00 0.00 0.00 51 1013.2
20260505162016 51 313 2.0 5.0 0.00 0.00 0.00 50 1013.2
20260505161017 51 314 2.0 9.0 0.00 0.00 0.00 49 1013.2
20260505153017 54 321 4.0 10.0 0.00 0.00 0.00 37 1013.1
20260505152017 55 322 5.0 11.0 0.00 0.00 0.00 37 1013.0
20260505151057 55 321 4.0 10.0 0.00 0.00 0.00 36 1013.0
20260505125017 57 311 2.0 6.0 0.00 0.00 0.00 34 1013.1
20260505124016 56 324 2.0 8.0 0.00 0.00 0.00 36 1013.1
20260505123016 57 324 3.0 10.0 0.00 0.00 0.00 37 1013.0
20260505122016 57 318 3.0 9.0 0.00 0.00 0.00 38 1013.1
20260505121017 57 322 2.0 10.0 0.00 0.00 0.00 40 1013.1
20260505120016 57 325 4.0 12.0 0.00 0.00 0.00 39 1013.1
20260505115017 57 312 3.0 9.0 0.00 0.00 0.00 42 1013.1
20260505114017 57 323 3.0 9.0 0.00 0.00 0.00 44 1013.1
20260505113016 57 313 4.0 13.0 0.00 0.00 0.00 44 1013.2
20260505112017 57 307 3.0 8.0 0.00 0.00 0.00 45 1013.1
20260505111036 57 300 3.0 11.0 0.00 0.00 0.00 42 1013.1